This demonstration page uses our WeatherBlox Daily Observations layout. Learn more.

Left ArrowRight Arrow

39.08367, -84.50855

Hourly Observations for November 13, 2018

Temp ( °F °C ) Dew Point ( °F °C ) Humidity (%) Winds ( mph kmh ) Pressure ( in mb ) Visibility ( mi km ) Precip ( " mm )
12:53 am 00:53 Cloudy with Mist and Fog 37 2.8 35 1.7 93 93 N 10 17 30.22 1023 6 10 0.00 0.03
1:53 am 01:53 Cloudy 37 2.8 34 1.1 89 89 N 6 9 30.21 1023 8 13 0.00 0.00
2:41 am 02:41 Cloudy 37 2.8 34 1.1 89 89 N 5 7 30.21 1023 10 16 0.00 0.00
2:53 am 02:53 Cloudy 37 2.8 34 1.1 89 89 N 6 9 30.21 1023 10 16 0.00 0.00
3:53 am 03:53 Cloudy 37 2.8 34 1.1 89 89 NNW 5 7 30.21 1023 9 14 0.00 0.00
4:53 am 04:53 Cloudy with Light Rain 37 2.8 34 1.1 89 89 N 6 9 30.20 1023 7 11 0.00 0.03
5:53 am 05:53 Cloudy with Light Rain 36 2.2 33 0.6 89 89 NW 3 6 30.24 1024 7 11 0.01 0.25
6:40 am 06:40 Cloudy with Light Rain 35 1.7 34 1.1 96 96 NNW 3 6 30.27 1025 5 8 0.01 0.25
6:53 am 06:53 Cloudy with Mist and Fog 36 2.2 34 1.1 93 93 Calm 30.24 1024 6 10 0.01 0.25
7:26 am 07:26 Cloudy with Light Rain 36 2.2 35 1.7 97 97 NNW 3 6 30.24 1024 4 6 0.00 0.03
7:53 am 07:53 Cloudy with Light Rain 37 2.8 35 1.7 93 93 NW 6 9 30.25 1025 5 8 0.00 0.03
8:53 am 08:53 Cloudy with Light Rain 37 2.8 35 1.7 93 93 NW 7 11 30.29 1026 3 5 0.00 0.03
9:19 am 09:19 Cloudy with Mist and Fog 37 2.8 35 1.7 93 93 N 8 13 30.27 1025 3 5 0.00 0.03
9:30 am 09:30 Cloudy with Mist and Fog 37 2.8 35 1.7 93 93 NNW 8 13 30.27 1025 3 5 0.00 0.03
9:53 am 09:53 Cloudy with Mist and Fog 37 2.8 35 1.7 93 93 NNW 9 15 30.30 1026 3 5 0.00 0.03
10:53 am 10:53 Cloudy with Mist and Fog 37 2.8 34 1.1 89 89 N 9 15 30.32 1027 5 8 0.00 0.00
11:53 am 11:53 Cloudy 37 2.8 33 0.6 86 86 NNW 14 22 30.34 1027 7 11 0.00 0.00
12:53 pm 12:53 Cloudy 39 3.9 31 -0.6 73 73 NNW 10 17 30.33 1027 10 16 0.00 0.00
1:53 pm 13:53 Cloudy 39 3.9 28 -2.2 65 65 N 10 17 30.32 1027 10 16 0.00 0.00
2:53 pm 14:53 Cloudy 38 3.3 27 -2.8 65 65 NNW 10 17 30.33 1027 10 16 0.00 0.00
3:53 pm 15:53 Cloudy 38 3.3 26 -3.3 62 62 NNW 10 17 30.36 1028 10 16 0.00 0.00
4:53 pm 16:53 Cloudy 37 2.8 27 -2.8 67 67 NW 9 15 30.37 1029 10 16 0.00 0.00
5:53 pm 17:53 Cloudy 36 2.2 26 -3.3 67 67 NNW 10 17 30.39 1029 10 16 0.00 0.00
6:53 pm 18:53 Mostly Cloudy 34 1.1 25 -3.9 70 70 NNW 15 24 30.42 1030 10 16 0.00 0.00
7:53 pm 19:53 Partly Cloudy 33 0.6 24 -4.4 70 70 NNW 9 15 30.45 1031 10 16 0.00 0.00
8:53 pm 20:53 Clear 32 0 23 -5 69 69 NW 5 7 30.46 1032 10 16 0.00 0.00
9:53 pm 21:53 Clear 31 -0.6 23 -5 72 72 NNW 8 13 30.48 1032 10 16 0.00 0.00
10:53 pm 22:53 Clear 31 -0.6 23 -5 72 72 Calm 30.49 1033 10 16 0.00 0.00
11:53 pm 23:53 Clear 29 -1.7 22 -5.6 75 75 NNW 3 6 30.51 1033 10 16 0.00 0.00

Powered by AerisWeather